APRIZESAT 2

Satellite information

Favourite Embed

Satellite Type and Status

PAYLOADIN ORBIT

Key statistics

Satellite APRIZESAT 2 at a glance.

Uptime

7678

Days in orbit

Revolutions

≈ 14.4

Per day

Orbit

SSO

Sun Synchronous Orbit

Inclination

98.1

Latest

Satellite identification and parameters

Extended collection of information and parameters for APRIZESAT 2.

Object identification

Identified? True

Debris? False

Object name: APRIZESAT 2

International designator: 2004-025A

Object number (NORAD): 28366

Object ID (CCSDS): 28366

Country: UNITED STATES OF AMERICA (US)

Current information (Y/N): Y

RCS size: SMALL

Orbital parameters

Period: 100.152 minutes

Inclination: 98.0776 deg

SMA: 7143.886 km

Apoapsis: 840.915 km

Periapsis: 690.586 km

RAAN: 8.5875 deg

Eccentricy: 0.0105215

Argument of periapsis: 213.4241 deg

Mean anomaly: 146.0277 deg

Mean motion: 14.37808353 rev/day

Mean motion (dot): 0.0000018 rev/day2

B* drag term: 0.000069373 1/REarth

Two-line elements (TLE)

Creation date: July 6, 2025, 6:05 p.m.

Reference frame: TEME

Reference center: EARTH

Epoch: July 6, 2025, 10:43 a.m. UTC

TLE line 0: 0 APRIZESAT 2

TLE line 1: 1 28366U 04025A 25187.44717440 .00000180 00000-0 69373-4 0 9991

TLE line 2: 2 28366 98.0776 8.5875 0105215 213.4241 146.0277 14.37808353101953

Live tracking on map

Real-time ground track for satellite APRIZESAT 2.

In-orbit conjunctions

There are no conjunctions computed for APRIZESAT 2, at the moment. Check back to stay up to date, as we update our databases every day.

Go to all conjunctions

Associated space launch

AprizeSat, is a constellation of small Low-Earth-Orbit satellites (64 satellites planned) to achieve a global communication system of data transmission and fixed and mobile asset tracking and monitoring (GMPCS).

APRIZESAT 2 was lifted into orbit during the mission ‘Dnepr | Aprizesat-2’, on board a Dnepr space rocket.

The launch took place on June 29, 2004, 6:30 a.m. from 109/95.

For more information about the launch, click the button.

Launch to space Dnepr | Aprizesat-2
Dnepr | Aprizesat-2

Agency: N/A

Status: Launch Successful

Launch date: June 29, 2004, 6:30 a.m. UTC

Rocket: Dnepr

Launch pad: 109/95

Location: Baikonur Cosmodrome, Republic of Kazakhstan

...

Latest news about this satellite

There are no fresh news available about this satellite. Check back as we update our databases every day.


Newsletter sign-up

Weekly statistics, charts and insights to help you stay on top of the space industry.